DW2213 Weather Reports


time (UTC)temp
C
wind
direction
speed
KPH
gust
KPH
rain 1hr
cm
rain 24hr
cm
rain mn
cm
humidity
%
barometer
mb
20260506193304 18 100 8.0 11.3 0.00 0.00 0.00 66 1010.1
20260506192803 18 107 6.4 11.3 0.00 0.00 0.00 66 1009.9
20260506192306 19 87 8.0 14.5 0.00 0.00 0.00 66 1010.0
20260506191804 19 117 4.8 9.7 0.00 0.00 0.00 66 1009.9
20260506191303 19 117 6.4 9.7 0.00 0.00 0.00 66 1009.8
20260506190804 19 125 4.8 12.9 0.00 0.00 0.00 66 1009.8
20260506190303 19 135 4.8 11.3 0.00 0.00 0.00 66 1009.8
20260506185804 19 124 9.7 14.5 0.00 0.00 0.00 66 1009.7
20260506185306 19 134 9.7 14.5 0.00 0.00 0.00 66 1009.6
20260506184804 19 119 9.7 14.5 0.00 0.00 0.00 65 1009.5
20260506184304 19 119 6.4 14.5 0.00 0.00 0.00 65 1009.6
20260506183803 19 114 9.7 14.5 0.00 0.00 0.00 65 1009.5
20260506183304 19 113 8.0 12.9 0.00 0.00 0.00 64 1009.5
20260506182804 19 126 9.7 19.3 0.00 0.00 0.00 64 1009.5
20260506182306 20 118 9.7 19.3 0.00 0.00 0.00 63 1009.4
20260506181804 20 120 9.7 14.5 0.00 0.00 0.00 63 1009.5
20260506181304 20 122 6.4 12.9 0.00 0.00 0.00 64 1009.4
20260506180804 20 119 11.3 19.3 0.00 0.00 0.00 63 1009.5
20260506180303 20 127 11.3 19.3 0.00 0.00 0.00 63 1009.5
20260506175803 20 99 9.7 20.9 0.00 0.00 0.00 63 1009.4
20260506175306 20 69 9.7 19.3 0.00 0.00 0.00 63 1009.4
20260506174803 20 105 11.3 19.3 0.00 0.00 0.00 63 1009.5
20260506174305 20 101 11.3 20.9 0.00 0.00 0.00 62 1009.6
20260506173304 20 112 8.0 14.5 0.00 0.00 0.00 62 1009.7
20260506172806 20 109 6.4 19.3 0.00 0.00 0.00 63 1009.7
20260506172307 20 90 9.7 14.5 0.00 0.00 0.00 62 1009.7
20260506170805 20 119 8.0 20.9 0.00 0.00 0.00 61 1009.7
20260506170305 20 75 9.7 20.9 0.00 0.00 0.00 61 1009.6
20260506165804 20 59 9.7 19.3 0.00 0.00 0.00 62 1009.7
20260506165306 20 87 11.3 19.3 0.00 0.00 0.00 61 1009.6
20260506164804 20 127 11.3 20.9 0.00 0.00 0.00 61 1009.5
20260506164304 21 103 11.3 22.5 0.00 0.00 0.00 61 1009.6
20260506163304 21 111 16.1 24.1 0.00 0.00 0.00 59 1009.6
20260506162804 21 78 11.3 20.9 0.00 0.00 0.00 59 1009.6
20260506162307 21 85 11.3 22.5 0.00 0.00 0.00 59 1009.5
20260506161805 21 101 8.0 24.1 0.00 0.00 0.00 58 1009.4
20260506161304 21 117 9.7 20.9 0.00 0.00 0.00 59 1009.4
20260506160804 21 114 11.3 22.5 0.00 0.00 0.00 58 1009.4
20260506155306 21 53 12.9 24.1 0.00 0.00 0.00 58 1009.5
20260506154305 21 82 12.9 19.3 0.00 0.00 0.00 58 1009.5
20260506152306 21 123 14.5 19.3 0.00 0.00 0.00 58 1009.5
20260506151304 21 84 12.9 24.1 0.00 0.00 0.00 57 1009.4
20260506150805 21 72 14.5 22.5 0.00 0.00 0.00 58 1009.4
20260506150305 21 108 11.3 19.3 0.00 0.00 0.00 58 1009.4
20260506145805 21 104 14.5 20.9 0.00 0.00 0.00 58 1009.5
20260506145306 22 89 16.1 29.0 0.00 0.00 0.00 56 1009.5
20260506144305 22 126 16.1 24.1 0.00 0.00 0.00 56 1009.5
20260506143804 22 142 12.9 24.1 0.00 0.00 0.00 55 1009.6
20260506143305 22 64 16.1 25.7 0.00 0.00 0.00 54 1009.8
20260506142804 23 26 16.1 33.8 0.00 0.00 0.00 54 1009.7
20260506141804 23 104 14.5 25.7 0.00 0.00 0.00 55 1009.8
20260506141304 22 85 14.5 20.9 0.00 0.00 0.00 55 1009.9
20260506140805 22 100 16.1 27.4 0.00 0.00 0.00 54 1009.9
20260506140304 23 44 19.3 29.0 0.00 0.00 0.00 53 1009.9
20260506135805 23 102 14.5 24.1 0.00 0.00 0.00 54 1009.9
20260506135306 23 29 14.5 25.7 0.00 0.00 0.00 53 1009.9
20260506134805 23 74 12.9 25.7 0.00 0.00 0.00 53 1009.9
20260506133804 22 107 16.1 29.0 0.00 0.00 0.00 55 1009.9
20260506133305 23 65 9.7 27.4 0.00 0.00 0.00 53 1010.0
20260506132805 23 44 11.3 20.9 0.00 0.00 0.00 53 1010.0
20260506132307 23 76 12.9 22.5 0.00 0.00 0.00 54 1010.0
20260506131805 23 71 14.5 25.7 0.00 0.00 0.00 54 1010.0
20260506131304 23 79 14.5 24.1 0.00 0.00 0.00 53 1010.0
20260506130805 23 92 16.1 32.2 0.00 0.00 0.00 52 1010.1
20260506130305 23 20 12.9 24.1 0.00 0.00 0.00 51 1010.1
20260506125804 23 64 14.5 24.1 0.00 0.00 0.00 52 1010.2
20260506125305 23 47 14.5 22.5 0.00 0.00 0.00 52 1010.2
20260506124804 22 56 16.1 29.0 0.00 0.00 0.00 52 1010.3
20260506124305 23 69 14.5 25.7 0.00 0.00 0.00 48 1010.3
20260506123804 23 85 11.3 19.3 0.00 0.00 0.00 48 1010.3
20260506123304 23 70 12.9 24.1 0.00 0.00 0.00 48 1010.4
20260506122804 23 46 12.9 22.5 0.00 0.00 0.00 51 1010.4
20260506122306 23 106 9.7 19.3 0.00 0.00 0.00 51 1010.4
20260506121804 23 40 9.7 24.1 0.00 0.00 0.00 49 1010.4
20260506121305 23 35 11.3 20.9 0.00 0.00 0.00 48 1010.4
20260506120804 23 25 9.7 20.9 0.00 0.00 0.00 48 1010.5
20260506120304 23 77 11.3 20.9 0.00 0.00 0.00 50 1010.5
20260506115804 23 31 14.5 20.9 0.00 0.00 0.00 50 1010.5
20260506115307 23 84 9.7 16.1 0.00 0.00 0.00 51 1010.5
20260506114805 23 39 11.3 22.5 0.00 0.00 0.00 51 1010.6
20260506114304 23 107 14.5 25.7 0.00 0.00 0.00 51 1010.6
20260506113304 23 41 11.3 19.3 0.00 0.00 0.00 51 1010.7
20260506112804 23 125 11.3 22.5 0.00 0.00 0.00 52 1010.7
20260506111804 22 83 9.7 20.9 0.00 0.00 0.00 52 1010.9
20260506111304 23 94 9.7 20.9 0.00 0.00 0.00 54 1010.8
20260506110804 23 36 9.7 19.3 0.00 0.00 0.00 53 1010.8
20260506110305 23 128 9.7 20.9 0.00 0.00 0.00 52 1010.9
20260506105804 22 112 9.7 24.1 0.00 0.00 0.00 52 1010.9
20260506105305 22 43 8.0 22.5 0.00 0.00 0.00 54 1010.9
20260506104805 22 74 8.0 19.3 0.00 0.00 0.00 54 1010.9
20260506104305 22 43 11.3 19.3 0.00 0.00 0.00 55 1011.0
20260506103805 22 71 8.0 14.5 0.00 0.00 0.00 57 1011.0
20260506103304 21 53 9.7 19.3 0.00 0.00 0.00 58 1011.0
20260506102805 21 108 6.4 19.3 0.00 0.00 0.00 56 1011.1
20260506101804 22 111 11.3 19.3 0.00 0.00 0.00 56 1011.2
20260506101305 21 81 6.4 19.3 0.00 0.00 0.00 56 1011.2
20260506100804 21 81 9.7 14.5 0.00 0.00 0.00 56 1011.2
20260506100305 21 71 4.8 12.9 0.00 0.00 0.00 56 1011.2
20260506094805 21 101 3.2 9.7 0.00 0.00 0.00 57 1011.2
20260506094305 21 113 4.8 11.3 0.00 0.00 0.00 58 1011.2
20260506093805 21 148 4.8 12.9 0.00 0.00 0.00 57 1011.1
20260506093304 21 149 3.2 16.1 0.00 0.00 0.00 56 1011.1
20260506092804 21 145 4.8 14.5 0.00 0.00 0.00 56 1011.1
20260506092306 21 93 6.4 12.9 0.00 0.00 0.00 57 1011.0
20260506091805 21 107 4.8 11.3 0.00 0.00 0.00 58 1011.0
20260506091304 21 121 4.8 11.3 0.00 0.00 0.00 59 1011.0
20260506090804 20 96 4.8 12.9 0.00 0.00 0.00 58 1011.0
20260506085804 21 78 4.8 9.7 0.00 0.00 0.00 58 1010.9
20260506085306 21 100 4.8 12.9 0.00 0.00 0.00 58 1010.9
20260506084804 21 103 4.8 12.9 0.00 0.00 0.00 59 1010.9
20260506084304 20 118 8.0 19.3 0.00 0.00 0.00 59 1011.0
20260506083804 20 98 4.8 9.7 0.00 0.00 0.00 59 1011.0
20260506083305 20 96 4.8 8.0 0.00 0.00 0.00 59 1011.0
20260506082805 20 85 3.2 8.0 0.00 0.00 0.00 60 1011.0
20260506081304 20 58 4.8 9.7 0.00 0.00 0.00 62 1011.0
20260506080804 20 74 3.2 8.0 0.00 0.00 0.00 64 1010.9
20260506080304 19 336 3.2 4.8 0.00 0.00 0.00 63 1010.9
20260506072804 18 336 3.2 4.8 0.00 0.00 0.00 69 1010.9
20260506072305 18 324 3.2 9.7 0.00 0.00 0.00 69 1011.0
20260506071805 17 313 3.2 4.8 0.00 0.00 0.00 71 1011.0
20260506071304 17 315 3.2 4.8 0.00 0.00 0.00 72 1011.0
20260506070804 17 314 3.2 4.8 0.00 0.00 0.00 73 1011.0
20260506062305 16 59 1.6 8.0 0.00 0.00 0.00 76 1010.9
20260506061804 16 59 0.0 3.2 0.00 0.00 0.00 76 1010.9
20260506060805 16 59 0.0 3.2 0.00 0.00 0.00 77 1010.8
20260506060304 16 59 0.0 3.2 0.00 0.00 0.00 77 1010.8
20260506051304 15 59 0.0 3.2 0.00 0.00 0.00 81 1010.4
20260506050805 15 59 0.0 0.0 0.00 0.00 0.00 81 1010.4
20260506050304 15 59 0.0 0.0 0.00 0.00 0.00 81 1010.3
20260506044804 16 61 0.0 3.2 0.00 0.00 0.00 79 1010.2
20260506044304 16 61 0.0 1.6 0.00 0.00 0.00 79 1010.1
20260506043804 16 61 0.0 3.2 0.00 0.00 0.00 78 1010.2
20260506043304 16 61 0.0 4.8 0.00 0.00 0.00 78 1010.1
20260506042305 16 61 0.0 0.0 0.00 0.00 0.00 78 1010.1
20260506041804 16 61 0.0 1.6 0.00 0.00 0.00 78 1010.1
20260506041304 16 61 1.6 8.0 0.00 0.00 0.00 77 1010.1
20260506040304 16 61 3.2 4.8 0.00 0.00 0.00 77 1010.1
20260506035804 16 61 1.6 3.2 0.00 0.00 0.00 78 1010.1
20260506035306 16 61 1.6 3.2 0.00 0.00 0.00 78 1010.1
20260506034804 16 61 0.0 3.2 0.00 0.00 0.00 78 1010.1
20260506034305 16 61 0.0 1.6 0.00 0.00 0.00 78 1010.1
20260506033304 16 61 0.0 0.0 0.00 0.00 0.00 78 1010.1
20260506032804 16 61 0.0 0.0 0.00 0.00 0.00 78 1010.2
20260506032306 16 61 1.6 3.2 0.00 0.00 0.00 78 1010.1
20260506031804 16 61 1.6 3.2 0.00 0.00 0.00 77 1010.1
20260506031304 16 61 0.0 1.6 0.00 0.00 0.00 78 1010.1
20260506030803 16 61 1.6 3.2 0.00 0.00 0.00 77 1010.1
20260506025804 16 61 0.0 1.6 0.00 0.00 0.00 77 1010.1
20260506024304 16 61 0.0 0.0 0.00 0.00 0.00 76 1010.2
20260506023804 16 61 0.0 4.8 0.00 0.00 0.00 76 1010.2
20260506023304 16 62 1.6 3.2 0.00 0.00 0.00 75 1010.2
20260506022804 16 61 0.0 0.0 0.00 0.00 0.00 76 1010.2
20260506022306 16 61 0.0 3.2 0.00 0.00 0.00 75 1010.2
20260506021804 16 61 0.0 3.2 0.00 0.00 0.00 76 1010.2
20260506021304 16 61 1.6 3.2 0.00 0.00 0.00 75 1010.2
20260506020805 16 61 0.0 3.2 0.00 0.00 0.00 75 1010.2
20260506015804 17 61 1.6 3.2 0.00 0.00 0.00 75 1010.1
20260506015306 17 61 1.6 3.2 0.00 0.00 0.00 76 1010.1
20260506014804 17 61 1.6 4.8 0.00 0.00 0.00 76 1010.1
20260506014304 17 61 1.6 4.8 0.00 0.00 0.00 76 1010.1
20260506013803 16 56 1.6 4.8 0.00 0.00 0.00 77 1010.1
20260506011804 16 61 3.2 8.0 0.00 0.00 0.00 77 1010.3
20260506011304 16 61 3.2 4.8 0.00 0.00 0.00 78 1010.2
20260506010804 16 61 3.2 4.8 0.00 0.00 0.00 78 1010.2
20260506010304 16 61 3.2 4.8 0.00 0.00 0.00 78 1010.2
20260506005306 17 61 1.6 4.8 0.00 0.00 0.00 77 1010.2
20260506004805 17 61 1.6 3.2 0.00 0.00 0.00 77 1010.3
20260506004304 17 61 1.6 4.8 0.00 0.00 0.00 76 1010.3
20260506003804 17 61 1.6 4.8 0.00 0.00 0.00 75 1010.4
20260506003304 17 61 1.6 4.8 0.00 0.00 0.00 75 1010.4
20260506002804 18 52 3.2 4.8 0.00 0.00 0.00 74 1010.5
20260506002306 18 60 1.6 3.2 0.00 0.00 0.00 74 1010.5
20260506001803 18 60 1.6 3.2 0.00 0.00 0.00 74 1010.5
20260506001304 18 61 1.6 4.8 0.00 0.00 0.00 73 1010.5
20260506000804 18 61 0.0 0.0 0.00 0.00 0.00 73 1010.6
20260505235804 18 61 3.2 4.8 0.00 0.00 0.00 73 1010.6
20260505235305 18 61 3.2 4.8 0.00 0.00 0.00 73 1010.6
20260505234304 18 61 3.2 4.8 0.00 0.00 0.00 73 1010.6
20260505233804 18 61 1.6 4.8 0.00 0.00 0.00 73 1010.6
20260505233304 18 56 4.8 8.0 0.00 0.00 0.00 73 1010.6
20260505232804 18 53 4.8 9.7 0.00 0.00 0.00 73 1010.5
20260505231304 18 53 3.2 11.3 0.00 0.00 0.00 72 1010.5
20260505230304 18 49 6.4 14.5 0.00 0.00 0.00 72 1010.4
20260505225804 18 55 8.0 16.1 0.00 0.00 0.00 72 1010.5
20260505225306 18 30 6.4 14.5 0.00 0.00 0.00 71 1010.5
20260505224803 18 26 8.0 19.3 0.00 0.00 0.00 71 1010.6
20260505224304 19 17 8.0 14.5 0.00 0.00 0.00 71 1010.6
20260505223804 19 25 6.4 11.3 0.00 0.00 0.00 70 1010.6
20260505223304 19 354 4.8 11.3 0.00 0.00 0.00 70 1010.6
20260505222804 18 46 6.4 16.1 0.00 0.00 0.00 70 1010.6
20260505222305 18 57 4.8 19.3 0.00 0.00 0.00 71 1010.6
20260505221804 18 63 6.4 19.3 0.00 0.00 0.00 71 1010.6
20260505220818 18 31 9.7 20.9 0.00 0.00 0.00 72 1010.6
20260505220305 18 13 9.7 16.1 0.00 0.00 0.00 72 1010.5
20260505215804 18 54 9.7 20.9 0.00 0.00 0.00 73 1010.4
20260505215305 18 46 8.0 22.5 0.00 0.00 0.00 73 1010.3
20260505214804 18 40 8.0 22.5 0.00 0.00 0.00 73 1010.3
20260505213804 18 23 8.0 22.5 0.00 0.00 0.00 75 1009.9
20260505213304 18 41 11.3 20.9 0.00 0.00 0.00 75 1009.8
20260505212804 19 41 11.3 32.2 0.00 0.00 0.00 76 1009.7
20260505212305 19 18 14.5 27.4 0.00 0.00 0.00 77 1009.7
20260505211804 19 28 9.7 22.5 0.00 0.00 0.00 77 1009.7
20260505211304 19 7 12.9 29.0 0.00 0.00 0.00 78 1009.6
20260505210804 20 15 16.1 27.4 0.00 0.00 0.00 78 1009.6
20260505210304 20 14 14.5 27.4 0.00 0.00 0.00 77 1009.6
20260505205804 20 11 14.5 29.0 0.00 0.00 0.00 77 1009.5
20260505205305 20 0 11.3 20.9 0.00 0.00 0.00 76 1009.3
20260505204803 20 19 11.3 20.9 0.00 0.00 0.00 76 1009.1
20260505204304 20 17 9.7 24.1 0.00 0.00 0.00 75 1009.0
20260505203804 21 17 11.3 19.3 0.00 0.00 0.00 74 1009.0
20260505203304 21 10 8.0 19.3 0.00 0.00 0.00 72 1008.9
20260505202803 21 24 8.0 22.5 0.00 0.00 0.00 70 1008.8
20260505201304 22 350 4.8 9.7 0.00 0.00 0.00 63 1008.7
20260505200804 22 153 3.2 4.8 0.00 0.00 0.00 63 1008.3
20260505195803 22 153 3.2 8.0 0.00 0.00 0.00 64 1008.1
20260505195305 22 153 1.6 3.2 0.00 0.00 0.00 64 1008.0
20260505194304 22 153 3.2 8.0 0.00 0.00 0.00 62 1007.8
20260505193803 22 148 3.2 8.0 0.00 0.00 0.00 61 1007.7